CZ-6A DEB

Satellite information

Favourite Embed

Satellite Type and Status

DEBRISIN ORBIT

Key statistics

Satellite CZ-6A DEB at a glance.

Uptime

970

Days in orbit

Revolutions

≈ 14.3

Per day

Orbit

SSO

Sun Synchronous Orbit

Inclination

98.9

Latest

Satellite identification and parameters

Extended collection of information and parameters for CZ-6A DEB.

Object identification

Identified? True

Debris? True

Object name: CZ-6A DEB

International designator: 2022-151JC

Object number (NORAD): 54500

Object ID (CCSDS): 54500

Country: PEOPLES REPUBLIC OF CHINA (PRC)

Current information (Y/N): Y

RCS size: SMALL

Orbital parameters

Period: 100.916 minutes

Inclination: 98.9043 deg

SMA: 7180.161 km

Apoapsis: 884.505 km

Periapsis: 719.547 km

RAAN: 222.3528 deg

Eccentricy: 0.0114871

Argument of periapsis: 90.0612 deg

Mean anomaly: 271.3731 deg

Mean motion: 14.26926067 rev/day

Mean motion (dot): 0.00002074 rev/day2

B* drag term: 0.00081308 1/REarth

Two-line elements (TLE)

Creation date: July 7, 2025, 6:34 p.m.

Reference frame: TEME

Reference center: EARTH

Epoch: July 7, 2025, 1:27 a.m. UTC

TLE line 0: 0 CZ-6A DEB

TLE line 1: 1 54500U 22151JC 25188.06097636 .00002074 00000-0 81308-3 0 9992

TLE line 2: 2 54500 98.9043 222.3528 0114871 90.0612 271.3731 14.26926067137326

Live tracking on map

Real-time ground track for satellite CZ-6A DEB.

In-orbit conjunctions

A list of the most updated potential collisions computed for object CZ-6A DEB.

Target Orbit TCA Probability of collision Miss distance Type
METEOR 1-15 LEO 2024-10-09 01:28:26 0.000286387 205.0 (m) PAYLOAD
DELTA 1 DEB SSO 2024-07-23 15:25:58 0.000158122 170.0 (m) DEBRIS

Associated space launch

Chinese satellite reported for atmospheric/ocean/environmental/spatial parameter research purposes, details TBD.

CZ-6A DEB was lifted into orbit during the mission ‘Long March 6A | Yunhai 3’, on board a Long March 6A space rocket.

The launch took place on Nov. 11, 2022, 10:52 p.m. from Launch Complex 9A.

For more information about the launch, click the button.

Launch to space Long March 6A | Yunhai 3
Long March 6A | Yunhai 3

Agency: N/A

Status: Launch Successful

Launch date: Nov. 11, 2022, 10:52 p.m. UTC

Rocket: Long March 6A

Launch pad: Launch Complex 9A

Location: Taiyuan Satellite Launch Center, People's Republic of China

...

Latest news about this satellite

There are no fresh news available about this satellite. Check back as we update our databases every day.


Newsletter sign-up

Weekly statistics, charts and insights to help you stay on top of the space industry.